Вернуться в каталог

COSMOS 2202

АктивенСвязьPO
NORAD 22039·PAYLOAD·🇷🇺 Russia

Запущен Jul 13, 1992 с Plesetsk Cosmodrome

Loading…

Ближайшие Пролёты (ближайшие 24 часа)

TLE

СвежийSource: Space-Track

Эпоха: Sep 14, 2026, 14:00 UTC

1 22039U 92042F   26257.58380984  .00000020  00000-0  53560-4 0  9995
2 22039  82.5991 196.8451 0009662  99.4050  74.0461 12.62665598574688

Отслеживайте COSMOS 2202 в реальном времени с AllMySat

Download on the App Store